This is the latest recevied weather packets stored in our database for station/object VR2OT-10. If no packets are shown the sender has not sent any weather packets the latest 10 day(s).
| Time | Temp. | Humidity | Pressure | Rain* | Wind** | Luminosity | Snow |
|---|---|---|---|---|---|---|---|
| 1777733238 | 23.89° C | 87% | 1011.8 hPa | - | 0.89 m/s, 135° | - | - |
| 1777732338 | 23.89° C | 88% | 1011.6 hPa | - | 1.79 m/s, 135° | - | - |
| 1777731438 | 23.89° C | 87% | 1011.5 hPa | - | 1.79 m/s, 135° | - | - |
| 1777730538 | 23.89° C | 88% | 1011.5 hPa | - | 0.89 m/s, 135° | - | - |
| 1777729637 | 23.89° C | 87% | 1011.3 hPa | - | 1.34 m/s, 135° | - | - |
| 1777728739 | 24.44° C | 88% | 1011.1 hPa | - | 1.34 m/s, 135° | - | - |
| 1777727838 | 24.44° C | 88% | 1010.8 hPa | - | 2.24 m/s, 135° | - | - |
| 1777726938 | 23.89° C | 88% | 1010.7 hPa | - | 2.24 m/s, 135° | - | - |
| 1777725139 | 23.89° C | 86% | 1010.2 hPa | - | 2.24 m/s, 135° | - | - |
| 1777722438 | 23.89° C | 86% | 1009.8 hPa | - | 2.24 m/s, 135° | - | - |
| 1777721538 | 23.89° C | 85% | 1009.6 hPa | - | 3.13 m/s, 135° | - | - |
| 1777720638 | 23.89° C | 85% | 1009.8 hPa | - | 2.68 m/s, 135° | - | - |
| 1777719739 | 23.89° C | 84% | 1009.8 hPa | - | 2.68 m/s, 135° | - | - |
| 1777718838 | 23.89° C | 84% | 1009.7 hPa | - | 2.68 m/s, 135° | - | - |
| 1777717039 | 24.44° C | 82% | 1009.5 hPa | - | 3.58 m/s, 135° | - | - |
| 1777716138 | 24.44° C | 82% | 1009.6 hPa | - | 3.58 m/s, 135° | - | - |
| 1777715238 | 24.44° C | 82% | 1009.5 hPa | - | 3.58 m/s, 135° | - | - |
| 1777712539 | 25° C | 81% | 1009.3 hPa | - | 2.68 m/s, 135° | - | - |
| 1777711638 | 25° C | 80% | 1009.3 hPa | - | 3.13 m/s, 135° | - | - |
| 1777710737 | 25.56° C | 78% | 1009.5 hPa | - | 4.02 m/s, 135° | - | - |
| 1777709838 | 25° C | 78% | 1009.6 hPa | - | 4.02 m/s, 135° | - | - |
| 1777708939 | 25.56° C | 78% | 1009.7 hPa | - | 3.58 m/s, 135° | - | - |
| 1777706238 | 25.56° C | 78% | 1010.3 hPa | - | 3.13 m/s, 135° | - | - |
| 1777705338 | 26.11° C | 79% | 1010.7 hPa | - | 3.13 m/s, 135° | - | - |
| 1777704438 | 25° C | 80% | 1010.8 hPa | - | 2.68 m/s, 135° | - | - |
* Rain since midnight (hover to see other rain measurements)
** Current wind speed in m/s (hover to see current wind gust speed)